Location: Newark
(35.6799°N, 139.7636°E)
Time: 02:42:41
(UTC+00:00)

Explorer 7 - Pass Details

Date: 14 December 2019
Orbit: 485 x 679 km, 50.3° (Epoch: 26 January)

Event Time Altitude Azimuth Distance (km) Brightness Sun altitude
Rises 12:13:01 0° 304° (NW) 3,016 - -56.8°
Reaches altitude 10° 12:15:30 10° 298° (WNW) 2,084 - -57.3°
Maximum altitude 12:20:05 45° 227° (SW) 881 - -58.2°
Drops below altitude 10° 12:24:27 10° 154° (SSE) 1,982 - -59.1°
Sets 12:26:45 0° 148° (SSE) 2,851 - -59.5°
